Regional Weather Roundup
Issued by NWS

Home | Current Version | Previous Version | Text Only | Print | Product List | Glossary On
Versions: 1 2 3 4 5 6 7 8 9 10 11 12 13 14 15 16 17 18 19 20 21 22 23 24 25 26 27 28 29 30 31 32 33 34 35 36 37 38 39 40 41 42 43 44 45 46 47 48 49 50
000
ASUS45 KBOU 241910
RWRCO

WEATHER ROUNDUP FOR COLORADO
NATIONAL WEATHER SERVICE PUEBLO CO
100 PM MDT TUE APR 24 2018

NOTE: "FAIR" INDICATES FEW OR NO CLOUDS BELOW 12000 FEET WITH NO
SIGNIFICANT WEATHER AND/OR OBSTRUCTIONS TO VISIBILITY.

COZ001>005-013-030-031-242000-
...NORTHWEST COLORADO...

CITY           SKY/WX    TMP DP  RH WIND       PRES   REMARKS
CRAIG          MOSUNNY   49  31  49 CALM      30.31F
HAYDEN         SUNNY     45  31  58 VRB7      30.32F
MEEKER         PTSUNNY   51  28  41 NE13G21   30.29F
RABBIT EARS PA NOT AVBL
STEAMBOAT SPGS FAIR      45  31  57 SW7       30.29F
WALDEN         FAIR      37  18  44 N14G20    30.35F
$$

COZ006>008-011-242000-
...WEST CENTRAL VALLEYS...

CITY           SKY/WX    TMP DP  RH WIND       PRES   REMARKS
GRAND JUNCTION PTSUNNY   67  32  27 NW9G20    30.16F
MONTROSE       PTSUNNY   63  28  26 NW8       30.16F
EAGLE          PTSUNNY   59  30  33 NW15G21   30.19F
RIFLE          PTSUNNY   60  31  33 NW17G24   30.22F
DELTA          NOT AVBL
NUCLA          NOT AVBL
$$

COZ017>023-064>068-242000-
...SOUTHWEST COLORADO...

CITY           SKY/WX    TMP DP  RH WIND       PRES   REMARKS
DURANGO        MOSUNNY   71  20  14 W17G24    30.13F
CORTEZ         SUNNY     73  22  14 NW13      30.14F
PAGOSA SPRINGS NOT AVBL
TELLURIDE      CLOUDY    54  21  27 W14G20    30.30F
WOLF CREEK PAS CLOUDY    39  19  45 SW14G20   30.42F
$$

COZ009-010-012-014-032>034-037-058>063-242000-
...CENTRAL COLORADO...

CITY           SKY/WX    TMP DP  RH WIND       PRES   REMARKS
ASPEN          PTSUNNY   55  33  43 N8        30.19F
BUENA VISTA    NOT AVBL
COPPER MTN     NOT AVBL
BERTHOUD PASS  CLOUDY    23  12  63 W14G22    30.34S WCI  11
COTTONWOOD PAS PTSUNNY   54  30  40 W6G21     30.27F
GUNNISON       PTSUNNY   55  31  39 NW9       30.20F
KREMMLING      PTSUNNY   52  28  40 N17G25    30.27F
LEADVILLE      LGT RAIN  41  25  53 W9G29     30.26F
MONARCH PASS   PTSUNNY   37  27  65 W23G31    30.46F
SALIDA         NOT AVBL
SUNLIGHT       PTSUNNY   36  27  69 SW8G22    30.36S
WILKERSON PASS FOG       25  23  93 SE5       30.35F VSB 1/4 WCI  19
$$

COZ069>075-242000-
...SAN LUIS VALLEY/SANGRE DE CRISTO MOUNTAINS...

CITY           SKY/WX    TMP DP  RH WIND       PRES   REMARKS
ALAMOSA        SUNNY     61  28  28 S9G16     30.17F
DEL NORTE      NOT AVBL
LA VETA PASS   SNOW      32  30  93 NE18G24   30.44F VSB 1/2 WCI  20
SAGUACHE       NOT AVBL
$$

COZ035-036-038>040-242000-
...NORTHERN COLORADO FRONT RANGE...

CITY           SKY/WX    TMP DP  RH WIND       PRES   REMARKS
DENVER INTL AP CLOUDY    38  29  70 NE14      30.41F
DMNS CITY PARK NOT AVBL
AURORA         NOT AVBL
FRONT RANGE AP CLOUDY    37  32  81 N13       30.42F
ERIE MUNI ARPT LGT SNOW  36  34  93 N8        30.49S
BOULDER MUN AP LGT RAIN  34  34 100 CALM      30.43F
CENTENNIAL     LGT SNOW  34  29  82 NE9G18    30.41F FOG     WCI  27
BROOMFIELD     LGT RAIN  36  34  93 NE7       30.43S
LOVELAND       CLOUDY    43  29  57 NE10G18   30.42F
LONGMONT       NOT AVBL
$$

COZ041-046-047-076>085-087-088-242000-
...PIKES PEAK/PALMER DIVIDE AND SOUTHERN FOOTHILLS...

CITY           SKY/WX    TMP DP  RH WIND       PRES   REMARKS
COLO. SPRINGS  LGT SNOW  36  28  73 N23G36    30.37S
A. F. ACADEMY  FLURRIES  33  26  74 N17G23    30.37S WCI  23
SCHRIEVER AFB  NOT AVBL
CHEYENNE MTN   NOT AVBL
ELLICOTT         N/A    N/A N/A N/A N29G35    30.33F
FALCON         NOT AVBL
FORT CARSON    CLOUDY    38  27  63 N23G30    30.35S
LIMON          CLOUDY    37  32  82 N18G31    30.38F
MONUMENT HILL  CLOUDY    30  27  86 N16       30.40S WCI  19
CANON CITY     CLOUDY    43  32  65 SE18G24   30.35S
WALSENBURG     CLOUDY    41  34  75 N15       30.36F
TRINIDAD       LGT RAIN  38  35  89 NE10      30.36F FOG
$$

COZ042>045-048>051-090-091-242000-
...NORTHEAST COLORADO...

CITY           SKY/WX    TMP DP  RH WIND       PRES   REMARKS
GREELEY ARPT   PTSUNNY   44  27  51 NE14G22   30.42F
AKRON          CLOUDY    39  31  72 N21       30.39S
BURLINGTON     CLOUDY    40  38  93 N17G26    30.35F
WRAY           NOT AVBL
YUMA           NOT AVBL
STERLING       NOT AVBL
HOLYOKE        CLOUDY    43  36  75 N29G35    30.38S
FORT MORGAN    NOT AVBL
$$

COZ086-089-092>099-242000-
...SOUTHEAST COLORADO...

CITY           SKY/WX    TMP DP  RH WIND       PRES   REMARKS
PUEBLO         CLOUDY    46  30  53 NE17      30.37F
LA JUNTA       CLOUDY    46  32  58 N18       30.37F
LAMAR          CLOUDY    43  32  65 N17G24    30.34F
SPRINGFIELD      N/A     40  34  79 N26G35    30.32S
$$





USA.gov is the U.S. government's official web portal to all federal, state and local government web resources and services.